Location: St. Louis
(38.6270°N, 90.1994°W)
Time: 02:08:40
(UTC-06:00)

BlueWalker 3 - Visible Passes

Search period start: 06 December 2022 00:00
Search period end: 16 December 2022 00:00
Orbit: 501 x 518 km, 53.2° (Epoch: 05 December)

Date Brightness Start Highest point End Pass type
(mag) Time Alt. Az. Time Alt. Az. Time Alt. Az.
06 Dec 3.9 18:24:11 10° NNW 18:25:51 18° N 18:25:51 18° N visible
07 Dec 3.5 18:05:45 10° NNW 18:08:29 21° NNE 18:08:29 21° NNE visible
08 Dec 3.3 17:47:18 10° NNW 17:50:26 22° NNE 17:51:16 21° NE visible
08 Dec 4.8 19:25:32 10° NW 19:26:07 14° WNW 19:26:07 14° WNW visible
09 Dec 3.2 17:28:51 10° NNW 17:32:03 23° NNE 17:34:14 15° ENE visible
09 Dec 3.9 19:07:08 10° WNW 19:09:06 27° WNW 19:09:06 27° WNW visible
10 Dec 3.2 17:10:23 10° NNW 17:13:39 24° NNE 17:16:54 10° E visible
10 Dec 2.7 18:48:44 10° WNW 18:52:21 50° SW 18:52:21 50° SW visible
11 Dec 2.9 18:30:20 10° WNW 18:34:04 47° SW 18:36:01 24° SSE visible
12 Dec 3.1 18:11:55 10° WNW 18:15:38 43° SW 18:19:18 10° SSE visible
13 Dec 3.4 17:53:31 10° WNW 17:57:11 40° SW 18:00:49 10° SSE visible
14 Dec 3.6 17:35:07 10° WNW 17:38:44 37° SW 17:42:18 10° SSE visible
15 Dec 3.9 17:16:42 10° WNW 17:20:16 34° SW 17:23:48 10° SSE visible
